Regional Weather Roundup
Issued by NWS

Home | Current Version | Previous Version | Graphics & Text | Print | Product List | Glossary On
Versions: 1 2 3 4 5 6 7 8 9 10 11 12 13 14 15 16 17 18 19 20 21 22 23 24 25 26 27 28 29 30 31 32 33 34 35 36 37 38 39 40 41 42 43 44 45 46 47 48 49 50
157
ASUS43 KMKX 291721
RWRWI

WISCONSIN REGIONAL WEATHER ROUNDUP
NATIONAL WEATHER SERVICE MILWAUKEE/SULLIVAN WI
1200 PM CDT FRI APR 29 2016

NOTE: "FAIR" INDICATES FEW OR NO CLOUDS BELOW 12,000 FEET WITH NO
SIGNIFICANT WEATHER AND/OR OBSTRUCTIONS TO VISIBILITY.

WIZ001-002-006>008-014>016-023>028-291800-
NORTHWEST WISCONSIN

CITY           SKY/WX    TMP DP  RH WIND       PRES   REMARKS
SUPERIOR ARPT  SUNNY     49  31  48 E8        30.21S
ASHLAND        SUNNY     49  35  58 N14       30.20S
HAYWARD        SUNNY     52  27  38 NE13      30.15F
SIREN          SUNNY     53  27  37 NE13      30.14F
CUMBERLAND     SUNNY     50  30  46 N10       30.13F
RICE LAKE      SUNNY     52  32  46 N5        30.14F
CHETEK         SUNNY     51  33  50 NE3       30.13S
LADYSMITH      MOSUNNY   54  35  47 NE3       30.14F
EAU CLAIRE     MOSUNNY   52  37  56 E8        30.13S
MENOMONIE      PTSUNNY   51  51  99 NE5       30.13S
NEW RICHMOND   SUNNY     50  32  49 NE10      30.15R
OSCEOLA        SUNNY     52  34  51 NE14G20   30.17F
$$

WIZ003>005-009-010-017-018-291800-
NORTH CENTRAL WISCONSIN

CITY           SKY/WX    TMP DP  RH WIND       PRES   REMARKS
MANITOWISH WTR PTSUNNY   49  32  51 CALM      30.12F
ARBOR VITAE    PTSUNNY   52  34  50 SE7       30.12F
WOODRUFF       PTSUNNY   52  34  50 SE7       30.12F
RHINELANDER    PTSUNNY   50  33  52 VRB3      30.12F
EAGLE RIVER    MOSUNNY   50  31  48 NE7       30.13F
LAND O LAKES   CLOUDY    49  32  51 E6        30.13F
PHILLIPS       SUNNY     53  34  48 NE7       30.11F
TOMAHAWK       PTSUNNY   51  35  52 E8        30.12F
MEDFORD        CLOUDY    46  38  72 NE9       30.11F
MERRILL        CLOUDY    49  35  57 NE9       30.12F
$$

WIZ029-030-035-036-043>047-291800-
CENTRAL WISCONSIN

CITY           SKY/WX    TMP DP  RH WIND       PRES   REMARKS
WAUSAU         MOSUNNY   53  34  48 N10       30.09F
MOSINEE        MOSUNNY   48  36  61 N10       30.11F
MARSHFIELD     PTSUNNY   50  37  61 NE8G17    30.11R
STEVENS POINT  MOSUNNY   49  33  53 NE9       30.12R
WAUPACA        MOSUNNY   55  34  44 E9        30.11R
WAUTOMA        MOSUNNY   52  35  52 NE8G16    30.13R
WISC RAPIDS    CLOUDY    50  35  56 N5        30.13R
CAMP DOUGLAS   CLOUDY    46  45  93 NE6       30.13R
$$

WIZ011>013-019>022-031-037>040-048>050-291800-
NORTHEAST WISCONSIN

CITY           SKY/WX    TMP DP  RH WIND       PRES   REMARKS
ANTIGO         CLOUDY    51  35  53 E5        30.10F
SHAWANO        CLOUDY    54  35  49 E8        30.12F
OCONTO         CLOUDY    49  32  52 E10       30.12F
STURGEON BAY   CLOUDY    48  30  49 NE10      30.14F
GREEN BAY      CLOUDY    51  33  50 E13       30.13F
MANITOWOC      CLOUDY    50  31  48 MISG      30.13S
APPLETON       MOSUNNY   50  30  46 NE12G17   30.09F
CLINTONVILLE   CLOUDY    52  32  46 NE10      30.11F
OSHKOSH        CLOUDY    49  36  61 NE14      30.11R
$$

WIZ032>034-041-042-053>061-291800-
SOUTHWEST WISCONSIN

CITY           SKY/WX    TMP DP  RH WIND       PRES   REMARKS
LA CROSSE      CLOUDY    49  36  61 NE7       30.14R
SPARTA         CLOUDY    49  38  66 E5        30.14R
VIROQUA        CLOUDY    48  38  69 NE8       30.13R
BOSCOBEL       CLOUDY    51  36  56 VRB6      30.14R
PRAIRIE DU CHI CLOUDY    47  35  63 NE5       30.14R
PLATTEVILLE    PTSUNNY   48  40  71 NE13      30.10F
$$

WIZ056-057-062-063-064-067-068-291800-
SOUTH CENTRAL WISCONSIN

CITY           SKY/WX    TMP DP  RH WIND       PRES   REMARKS
REEDSBURG      CLOUDY    48  38  67 NE7       30.11S
BARABOO/DELLS  CLOUDY    47  35  63 NE10      30.11S
LONE ROCK      CLOUDY    49  37  63 NE7       30.14R
MINERAL POINT  CLOUDY    46  37  71 NE12      30.11R
MADISON        CLOUDY    46  37  71 NE13      30.11F
MIDDLETON      CLOUDY    47  38  71 E9        30.13R
WATERTOWN      CLOUDY    45  38  78 E9        30.11F
MONROE         CLOUDY    45  37  76 NE14      30.08F
JANESVILLE     CLOUDY    48  37  66 NE14      30.09F
$$

WIZ051-052-058>065-066-070>072-291800-
SOUTHEAST WISCONSIN

CITY           SKY/WX    TMP DP  RH WIND       PRES   REMARKS
MILWAUKEE      CLOUDY    45  37  73 N12       30.11F
WAUKESHA       CLOUDY    39  36  87 NE7       30.13F WCI  34
MILWAUKEE/TIMM NOT AVBL
RACINE         CLOUDY    45  37  73 N9        30.14S
BURLINGTON     CLOUDY    43  37  80 NE7       30.11F
KENOSHA        CLOUDY    44  38  79 NE8       30.13S
FOND DU LAC    CLOUDY    49  36  61 NE9       30.11F
SHEBOYGAN      PTSUNNY   48  34  58 E12       30.13R
WEST BEND      CLOUDY    46  34  61 E8        30.11F
JUNEAU         CLOUDY    46  35  67 E10       30.12F
$$

LSZ147-162-291800-
LAKE SUPERIOR

STATION/POSITION TIME  TEMP    WIND        PRES    WAVE
                       AIR SEA DIR/SP/G            HT/PER
                 (UTC) (F)     (DEG/KT/KT) (MB)    (FT/S)
W MID LAKE BUOY  1650   38 37   70/  8/ 10 1023.6F   1
DEVILS ISLAND    1700   38      90/  6/  8 1023.7F
SAXON HARBOR     1600   39     340/  5/  6 1022.4F
$$

LMZ867-665-643>646-291800-
LAKE MICHIGAN

STATION/POSITION TIME  TEMP    WIND        PRES    WAVE
                       AIR SEA DIR/SP/G            HT/PER
                 (UTC) (F)     (DEG/KT/KT) (MB)    (FT/S)
CHAMBERS ISLAND  1600   40      20/  9/ 12 1021.3S
N MID LAKE BUOY  1650   39 39   40/ 10/ 12 1020.9S   1/ 3
NORTHPORT PIER   1600   42     310/  6/  7 1021.0S
ALGOMA LAKESHORE 1615           60/ 13/ 17   N/A
KEWAUNEE LAKESHO 1600   44      30/  9/ 12 1019.9R
SHEBOYGAN LAKESH 1700   40      80/  5/  6 1021.2R
PORT WASHINGTON  1600   44      60/ 11/ 15 1021.0R
S MID LAKE BUOY  1650   40 40   40/ 10/ 10 1019.7F   1/ 3
KENOSHA   LAKESH 1700   41      20/  8/  9 1020.0F
$$

TC  - TEMPERATURE IN CELSIUS
VSB - VISIBILITY IN STATUTE MILES
WCI - WIND CHILL INDEX
HX  - HEAT INDEX





USA.gov is the U.S. government's official web portal to all federal, state and local government web resources and services.